Location: City of Moscow
(46.7306°N, 116.9989°W)
Time: 20:47:55
(UTC+00:00)

Meteor 2-20 - Pass Details

Date: 11 December 2025
Orbit: 937 x 959 km, 82.5° (Epoch: 12 January)

Event Time Altitude Azimuth Distance (km) Brightness Sun altitude
Exits shadow 13:26:13 - 345° (NNW) 3,138 6.9 -19.1°
Reaches altitude 10° 13:27:28 10° 343° (NNW) 2,677 6.5 -18.9°
Maximum altitude 13:33:23 54° 268° (W) 1,137 4.5 -17.9°
Drops below altitude 10° 13:39:14 10° 192° (SSW) 2,647 6.8 -16.9°
Sets 13:41:45 0° 188° (S) 3,585 7.6 -16.5°
